Volver al catálogo

FENGYUN 1C DEB

ActivoSSO
NORAD 30678·DEBRIS·🇨🇳 China

Lanzado May 10, 1999 desde Taiyuan Satellite Launch Center

Loading…

Próximos Pases (próximas 24 horas)

TLE

ActualizadoSource: Space-Track

Época: Sep 14, 2026, 09:26 UTC

1 30678U 99025AQL 26257.39309905  .00003245  00000-0  13037-2 0  9999
2 30678  99.0779 233.1164 0068720 154.0381   1.7109 14.27597155998046

Sigue FENGYUN 1C DEB en tiempo real con AllMySat

Download on the App Store